FW4624 Weather Reports


time (UTC)temp
C
wind
direction
speed
KPH
gust
KPH
rain 1hr
cm
rain 24hr
cm
rain mn
cm
humidity
%
barometer
mb
20200227104626 4 157 9.7 17.7 0.00 0.05 0.05 86 1002.7
20200227104106 4 167 8.0 19.3 0.00 0.05 0.05 86 1003.0
20200227103555 4 192 8.0 27.4 0.00 0.05 0.05 85 1003.1
20200227103111 4 189 6.4 27.4 0.00 0.05 0.05 85 1003.3
20200227102553 5 182 6.4 19.3 0.00 0.05 0.05 86 1003.4
20200227102101 4 202 4.8 17.7 0.00 0.05 0.05 86 1003.5
20200227101706 4 215 6.4 16.1 0.00 0.05 0.05 86 1003.7
20200227101050 4 191 4.8 16.1 0.00 0.05 0.05 86 1003.9
20200227100548 4 200 8.0 19.3 0.00 0.05 0.05 87 1004.0
20200227100108 4 217 6.4 20.9 0.00 0.05 0.05 86 1004.2
20200227095555 4 186 12.9 20.9 0.00 0.05 0.05 86 1004.3
20200227095046 4 195 11.3 22.5 0.00 0.05 0.05 87 1004.5
20200227094607 4 202 11.3 22.5 0.00 0.05 0.05 86 1004.5
20200227094045 4 175 6.4 22.5 0.00 0.05 0.05 87 1004.7
20200227093605 4 182 6.4 20.9 0.00 0.05 0.05 88 1004.8
20200227093121 4 201 11.3 20.9 0.00 0.05 0.05 88 1004.8
20200227092544 4 205 6.4 20.9 0.00 0.05 0.05 88 1004.9
20200227092057 3 197 9.7 25.7 0.00 0.05 0.05 88 1005.0
20200227091702 3 180 4.8 25.7 0.00 0.05 0.05 88 1005.1
20200227091042 3 194 6.4 19.3 0.00 0.05 0.05 88 1005.2
20200227090541 3 192 6.4 16.1 0.00 0.05 0.05 88 1005.2
20200227090103 3 177 0.0 19.3 0.00 0.05 0.05 88 1005.5
20200227085552 3 209 8.0 19.3 0.00 0.05 0.05 89 1005.6
20200227085039 3 206 6.4 19.3 0.00 0.05 0.05 89 1005.7
20200227084704 3 219 9.7 19.3 0.00 0.05 0.05 89 1005.8
20200227084037 3 196 6.4 16.1 0.00 0.05 0.05 89 1005.9
20200227083541 3 197 6.4 16.1 0.00 0.05 0.05 90 1005.9
20200227083039 3 185 0.0 16.1 0.00 0.05 0.05 90 1006.2
20200227082537 3 204 9.7 16.1 0.00 0.05 0.05 91 1006.2
20200227082034 3 184 1.6 16.1 0.00 0.05 0.05 91 1006.2
20200227081539 3 178 8.0 16.1 0.00 0.05 0.05 91 1006.2
20200227081033 3 204 0.0 1.6 0.00 0.05 0.05 92 1006.4
20200227080533 3 200 0.0 9.7 0.00 0.05 0.05 92 1006.5
20200227080034 3 190 0.0 12.9 0.00 0.05 0.05 92 1006.5
20200227075545 2 180 3.2 12.9 0.00 0.05 0.05 92 1006.6
20200227075040 2 149 4.8 12.9 0.00 0.05 0.05 93 1006.7
20200227074549 2 171 4.8 9.7 0.00 0.05 0.05 93 1006.8
20200227074034 2 166 0.0 8.0 0.00 0.05 0.05 93 1006.9
20200227073532 2 174 0.0 8.0 0.00 0.05 0.05 93 1006.8
20200227073048 2 186 0.0 6.4 0.00 0.05 0.05 93 1006.7
20200227072533 2 194 0.0 6.4 0.00 0.05 0.05 93 1006.8
20200227072027 2 184 0.0 4.8 0.00 0.05 0.05 92 1006.8
20200227071724 2 175 0.0 8.0 0.00 0.05 0.05 92 1006.8
20200227071033 2 173 4.8 8.0 0.00 0.05 0.05 92 1006.8
20200227070526 1 173 4.8 11.3 0.00 0.05 0.05 92 1006.9
20200227070048 2 171 3.2 11.3 0.00 0.05 0.05 92 1006.9
20200227065527 2 192 3.2 8.0 0.00 0.05 0.05 91 1006.9
20200227065026 2 200 4.8 11.3 0.00 0.05 0.05 91 1006.9
20200227064529 2 206 3.2 11.3 0.00 0.05 0.05 91 1006.9
20200227064036 2 196 0.0 9.7 0.00 0.05 0.05 91 1006.9
20200227063523 2 214 1.6 9.7 0.00 0.05 0.05 91 1007.0
20200227063036 2 213 3.2 9.7 0.00 0.05 0.05 91 1006.9
20200227062523 2 228 4.8 12.9 0.00 0.05 0.05 91 1007.0
20200227062022 2 215 6.4 14.5 0.00 0.05 0.05 92 1007.0
20200227061629 2 215 3.2 14.5 0.00 0.05 0.05 92 1007.0
20200227061022 2 236 1.6 14.5 0.00 0.05 0.05 92 1007.0
20200227060521 2 198 8.0 14.5 0.00 0.05 0.05 92 1007.1
20200227060032 2 226 8.0 17.7 0.00 0.05 0.05 92 1007.2
20200227055525 2 233 9.7 17.7 0.00 0.05 0.05 92 1007.3
20200227055019 2 215 3.2 16.1 0.00 0.05 0.05 92 1007.2
20200227054532 2 184 9.7 16.1 0.00 0.05 0.05 92 1007.3
20200227054019 2 245 8.0 14.5 0.00 0.05 0.05 92 1007.4
20200227053524 2 221 0.0 14.5 0.00 0.05 0.05 92 1007.4
20200227053024 2 240 8.0 16.1 0.03 0.05 0.05 92 1007.5
20200227052518 2 227 6.4 11.3 0.03 0.05 0.05 92 1007.5
20200227052016 2 219 0.0 9.7 0.05 0.05 0.05 92 1007.5
20200227051525 2 211 3.2 9.7 0.05 0.05 0.05 92 1007.5
20200227051016 2 196 3.2 11.3 0.05 0.05 0.05 92 1007.6
20200227050517 2 192 0.0 3.2 0.05 0.05 0.05 92 1007.7
20200227050018 2 203 0.0 11.3 0.05 0.05 0.05 91 1007.8
20200227045513 2 223 3.2 9.7 0.05 0.05 0.05 91 1007.9
20200227045012 2 229 0.0 11.3 0.05 0.05 0.05 91 1008.0
20200227044514 2 224 3.2 11.3 0.05 0.05 0.05 91 1008.0
20200227044012 2 221 0.0 11.3 0.05 0.05 0.05 91 1008.1
20200227043512 2 236 4.8 16.1 0.05 0.05 0.05 90 1008.0
20200227043018 2 231 8.0 25.7 0.03 0.05 0.05 90 1008.1
20200227042514 2 209 8.0 25.7 0.03 0.05 0.05 90 1008.1
20200227042009 2 228 8.0 24.1 0.00 0.03 0.03 90 1008.1
20200227041510 2 232 11.3 17.7 0.00 0.03 0.03 90 1008.1
20200227041011 2 192 0.0 0.0 0.00 0.03 0.03 89 1008.1
20200227040511 2 186 0.0 0.0 0.00 0.03 0.03 89 1008.0
20200227040014 2 222 0.0 0.0 0.00 0.03 0.03 89 1008.1
20200227035512 2 214 0.0 14.5 0.00 0.05 0.03 89 1008.1
20200227035011 2 227 1.6 17.7 0.00 0.05 0.03 89 1008.1
20200227034506 2 194 0.0 17.7 0.00 0.05 0.03 89 1008.3
20200227034009 2 203 3.2 17.7 0.00 0.05 0.03 89 1008.3
20200227033511 2 215 4.8 17.7 0.00 0.05 0.03 89 1008.3
20200227033012 2 221 9.7 16.1 0.00 0.05 0.03 89 1008.3
20200227032506 2 209 8.0 16.1 0.00 0.05 0.03 89 1008.3
20200227032006 2 228 8.0 16.1 0.00 0.05 0.03 89 1008.3
20200227031506 2 175 8.0 19.3 0.00 0.05 0.03 89 1008.2
20200227031005 2 210 4.8 20.9 0.00 0.05 0.03 89 1008.1
20200227030506 2 222 8.0 14.5 0.00 0.05 0.03 89 1008.1
20200227030005 2 226 1.6 16.1 0.03 0.05 0.03 89 1008.1
20200227025503 2 207 11.3 17.7 0.03 0.05 0.03 90 1008.1
20200227025003 2 222 4.8 17.7 0.03 0.05 0.03 90 1008.3
20200227024502 2 208 8.0 17.7 0.03 0.05 0.03 90 1008.3
20200227024004 2 234 0.0 12.9 0.03 0.05 0.03 90 1008.2
20200227023502 2 221 1.6 12.9 0.03 0.05 0.03 90 1008.2
20200227023002 2 211 3.2 8.0 0.03 0.05 0.03 90 1008.2
20200227022501 2 196 1.6 8.0 0.03 0.05 0.03 90 1008.4
20200227022003 2 225 0.0 6.4 0.03 0.05 0.03 90 1008.5
20200227021505 2 221 1.6 11.3 0.03 0.05 0.03 90 1008.5
20200227021004 2 221 4.8 11.3 0.03 0.05 0.03 90 1008.7
20200227020600 2 215 0.0 0.0 0.03 0.05 0.03 90 1008.6
20200227020148 2 215 0.0 0.0 0.00 0.03 0.00 90 1008.7
20200227015558 2 231 0.0 0.0 0.00 0.05 0.00 90 1008.7
20200227015100 2 223 0.0 0.0 0.00 0.05 0.00 90 1008.7
20200227014624 2 240 0.0 9.7 0.00 0.05 0.00 90 1008.5
20200227014058 2 207 0.0 16.1 0.00 0.05 0.00 90 1008.6
20200227013558 2 225 0.0 16.1 0.00 0.05 0.00 89 1008.6
20200227013112 2 225 0.0 16.1 0.00 0.05 0.00 89 1008.6
20200227012558 2 255 6.4 16.1 0.00 0.05 0.00 89 1008.6
20200227012057 2 237 3.2 19.3 0.00 0.05 0.00 89 1008.5
20200227011639 2 229 11.3 19.3 0.00 0.05 0.00 89 1008.5
20200227011055 2 242 11.3 19.3 0.00 0.05 0.00 89 1008.6
20200227010554 2 242 0.0 6.4 0.00 0.05 0.00 89 1008.5
20200227010147 2 236 0.0 8.0 0.00 0.05 0.00 90 1008.4
20200227005553 2 229 0.0 1.6 0.00 0.05 0.00 90 1008.4
20200227005053 2 235 0.0 0.0 0.00 0.05 0.00 90 1008.3
20200227004633 2 237 0.0 0.0 0.00 0.05 0.00 90 1008.4
20200227004052 2 236 0.0 0.0 0.00 0.05 0.00 90 1008.3
20200227003553 2 231 0.0 0.0 0.00 0.05 0.00 90 1008.4
20200227003150 2 240 0.0 0.0 0.00 0.05 0.00 90 1008.3
20200227002557 2 241 0.0 8.0 0.00 0.05 0.00 90 1008.5
20200227002052 2 241 0.0 11.3 0.00 0.05 0.00 90 1008.5
20200227001730 2 236 6.4 11.3 0.00 0.05 0.00 90 1008.5
20200227001050 2 225 0.0 12.9 0.00 0.05 0.00 90 1008.5
20200227000556 2 223 1.6 12.9 0.00 0.05 0.00 90 1008.4
20200227000137 2 227 3.2 9.7 0.00 0.05 0.00 90 1008.4
20200226235553 2 209 1.6 6.4 0.00 0.05 0.00 90 1008.5
20200226235105 2 228 0.0 0.0 0.00 0.05 0.00 90 1008.5
20200226234635 2 229 0.0 3.2 0.00 0.05 0.00 90 1008.4
20200226234046 2 223 0.0 4.8 0.00 0.05 0.00 89 1008.4
20200226233546 2 224 1.6 4.8 0.00 0.05 0.00 89 1008.3
20200226233046 2 224 0.0 3.2 0.00 0.05 0.00 89 1008.3
20200226232546 2 223 0.0 9.7 0.00 0.05 0.00 89 1008.3
20200226232048 2 225 3.2 9.7 0.00 0.05 0.00 89 1008.4
20200226231623 2 241 0.0 8.0 0.00 0.05 0.00 88 1008.3
20200226231048 2 238 0.0 11.3 0.00 0.05 0.00 88 1008.4
20200226230542 2 244 1.6 11.3 0.00 0.05 0.00 87 1008.4
20200226230115 2 255 0.0 11.3 0.00 0.05 0.00 87 1008.3
20200226225546 3 265 4.8 25.7 0.00 0.05 0.05 85 1008.4
20200226225043 3 259 17.7 25.7 0.00 0.05 0.05 84 1008.5
20200226224631 3 244 6.4 14.5 0.00 0.05 0.05 83 1008.3
20200226224041 3 252 1.6 12.9 0.00 0.05 0.05 82 1008.2
20200226223542 3 222 0.0 16.1 0.00 0.05 0.05 82 1008.2
20200226223151 3 233 0.0 12.9 0.00 0.05 0.05 82 1008.2
20200226222537 3 258 3.2 12.9 0.00 0.05 0.05 82 1008.2
20200226222039 3 257 0.0 14.5 0.00 0.05 0.05 81 1008.2
20200226221628 3 267 4.8 14.5 0.00 0.05 0.05 81 1008.1
20200226221038 3 263 6.4 14.5 0.00 0.05 0.05 80 1008.0
20200226220536 3 266 0.0 12.9 0.00 0.05 0.05 80 1008.0
20200226220054 3 263 4.8 12.9 0.00 0.05 0.05 80 1007.9
20200226215535 3 267 1.6 6.4 0.00 0.05 0.05 80 1008.0
20200226215044 3 254 0.0 11.3 0.00 0.05 0.05 80 1007.9
20200226214643 3 263 0.0 11.3 0.00 0.05 0.05 79 1007.9
20200226214049 3 256 1.6 16.1 0.00 0.05 0.05 79 1008.0
20200226213541 3 269 4.8 16.1 0.00 0.05 0.05 78 1008.0
20200226213141 3 271 0.0 9.7 0.00 0.05 0.05 78 1008.0
20200226212535 3 263 1.6 9.7 0.00 0.05 0.05 78 1008.0
20200226212046 3 268 1.6 8.0 0.00 0.05 0.05 78 1007.9
20200226211619 3 267 0.0 3.2 0.00 0.05 0.05 78 1007.9
20200226211032 3 271 0.0 1.6 0.00 0.05 0.05 78 1007.8
20200226210535 3 262 0.0 0.0 0.00 0.05 0.05 78 1007.7
20200226210149 3 268 0.0 9.7 0.00 0.05 0.05 79 1007.7
20200226205530 3 257 1.6 9.7 0.00 0.05 0.05 78 1007.6
20200226205033 3 273 1.6 12.9 0.00 0.05 0.05 78 1007.5
20200226204549 3 271 0.0 16.1 0.00 0.05 0.05 78 1007.5
20200226204028 3 267 3.2 20.9 0.00 0.05 0.05 78 1007.4
20200226203528 3 254 8.0 20.9 0.00 0.05 0.05 79 1007.3
20200226203030 3 282 3.2 14.5 0.00 0.05 0.05 79 1007.2
20200226202532 3 255 1.6 11.3 0.00 0.05 0.05 80 1007.2
20200226202027 3 264 1.6 12.9 0.00 0.05 0.05 79 1007.1
20200226201614 3 272 0.0 12.9 0.00 0.05 0.05 79 1007.0
20200226201035 3 278 0.0 11.3 0.00 0.05 0.05 79 1006.9
20200226200528 3 271 0.0 4.8 0.00 0.05 0.05 79 1006.7
20200226200130 4 271 0.0 17.7 0.00 0.05 0.05 79 1006.7
20200226195524 4 288 8.0 17.7 0.00 0.05 0.05 79 1006.8
20200226195024 4 294 0.0 14.5 0.00 0.05 0.05 79 1006.8
20200226194600 4 289 3.2 14.5 0.00 0.05 0.05 79 1006.8
20200226194022 4 277 1.6 12.9 0.00 0.05 0.05 79 1006.7
20200226193524 4 265 1.6 14.5 0.00 0.05 0.05 79 1006.7
20200226193037 4 269 4.8 14.5 0.00 0.05 0.05 79 1006.7
20200226192532 4 274 4.8 14.5 0.00 0.05 0.05 79 1006.6
20200226192021 4 277 3.2 22.5 0.00 0.05 0.05 79 1006.6
20200226191526 4 277 11.3 22.5 0.00 0.05 0.05 79 1006.4
20200226191037 4 269 6.4 20.9 0.00 0.05 0.05 79 1006.5
20200226190519 4 266 1.6 14.5 0.00 0.05 0.05 79 1006.4
20200226190023 4 294 4.8 14.5 0.00 0.05 0.05 79 1006.3
20200226185531 4 271 3.2 14.5 0.00 0.05 0.05 79 1006.3
20200226185028 4 271 3.2 11.3 0.00 0.05 0.05 79 1006.4
20200226184555 4 273 1.6 12.9 0.00 0.05 0.05 79 1006.3
20200226184018 4 242 3.2 12.9 0.00 0.05 0.05 79 1006.2
20200226183526 4 268 3.2 14.5 0.00 0.05 0.05 79 1006.1
20200226183023 4 267 4.8 14.5 0.00 0.05 0.05 79 1006.0
20200226182517 4 274 4.8 14.5 0.00 0.05 0.05 79 1006.0
20200226182023 4 273 0.0 14.5 0.00 0.05 0.05 80 1006.0
20200226181651 4 271 3.2 30.6 0.00 0.05 0.05 81 1005.9
20200226181015 4 275 12.9 30.6 0.00 0.05 0.05 82 1005.8
20200226180516 4 254 1.6 14.5 0.00 0.05 0.05 83 1005.6
20200226180014 4 265 1.6 14.5 0.00 0.05 0.05 83 1005.6
20200226175520 4 264 4.8 12.9 0.00 0.05 0.05 83 1005.6
20200226175013 4 265 1.6 6.4 0.00 0.05 0.05 83 1005.3
20200226174519 4 268 1.6 6.4 0.00 0.05 0.05 83 1005.4
20200226174018 4 268 0.0 6.4 0.00 0.05 0.05 82 1005.2
20200226173514 4 288 1.6 12.9 0.00 0.05 0.05 82 1005.1
20200226173034 4 277 3.2 12.9 0.00 0.05 0.05 82 1005.0
20200226172514 4 290 1.6 20.9 0.00 0.05 0.05 82 1004.9
20200226172016 4 293 6.4 20.9 0.00 0.05 0.05 83 1004.9
20200226171512 4 275 0.0 9.7 0.00 0.05 0.05 83 1004.8
20200226171008 4 259 0.0 16.1 0.00 0.05 0.05 83 1004.6
20200226170507 4 266 11.3 16.1 0.00 0.05 0.05 84 1004.6
20200226170007 4 259 0.0 9.7 0.00 0.05 0.05 84 1004.5
20200226165508 3 265 1.6 16.1 0.00 0.05 0.05 84 1004.5
20200226165006 4 267 0.0 16.1 0.00 0.05 0.05 83 1004.4
20200226164505 4 254 3.2 20.9 0.00 0.05 0.05 83 1004.4
20200226164010 4 266 4.8 17.7 0.00 0.05 0.05 82 1004.3
20200226163508 4 259 0.0 9.7 0.00 0.05 0.05 82 1004.3
20200226163026 4 283 0.0 9.7 0.00 0.05 0.05 82 1004.3
20200226162506 4 276 0.0 16.1 0.00 0.05 0.05 82 1004.3
20200226162003 4 275 3.2 16.1 0.00 0.05 0.05 82 1004.2
20200226161512 4 274 1.6 14.5 0.00 0.05 0.05 82 1004.1
20200226161007 4 252 1.6 14.5 0.00 0.05 0.05 82 1003.9
20200226160504 5 281 4.8 14.5 0.00 0.05 0.05 82 1003.8
20200226160004 5 271 1.6 17.7 0.00 0.05 0.05 82 1003.9
20200226155103 5 289 8.0 20.9 0.00 0.05 0.05 81 1003.6
20200226154620 5 273 1.6 17.7 0.00 0.05 0.05 80 1003.5
20200226154103 5 265 1.6 16.1 0.00 0.05 0.05 80 1003.5
20200226153558 5 293 3.2 16.1 0.00 0.05 0.05 80 1003.4
20200226153154 5 284 4.8 16.1 0.00 0.05 0.05 80 1003.2
20200226152604 5 284 3.2 16.1 0.00 0.05 0.05 80 1003.3
20200226152100 5 302 1.6 17.7 0.00 0.05 0.05 80 1003.2
20200226151649 5 290 3.2 19.3 0.00 0.05 0.05 80 1003.1
20200226151057 5 327 6.4 20.9 0.00 0.05 0.05 79 1003.0
20200226150204 5 276 4.8 14.5 0.00 0.05 0.05 80 1002.8
20200226145603 5 297 3.2 16.1 0.00 0.08 0.05 79 1002.6
20200226145100 6 291 4.8 14.5 0.00 0.08 0.05 79 1002.4
20200226144638 5 282 3.2 19.3 0.00 0.08 0.05 80 1002.3
20200226144054 5 266 1.6 19.3 0.00 0.08 0.05 80 1002.4
20200226143553 5 275 6.4 14.5 0.00 0.08 0.05 80 1002.3
20200226143143 5 287 0.0 8.0 0.00 0.08 0.05 81 1002.2
20200226142552 5 277 1.6 12.9 0.00 0.08 0.05 81 1002.3
20200226142112 5 306 3.2 12.9 0.00 0.08 0.05 81 1002.2
20200226141634 5 296 0.0 14.5 0.00 0.08 0.05 81 1002.1
20200226141051 5 281 3.2 16.1 0.00 0.08 0.05 81 1002.1
20200226140557 5 319 3.2 19.3 0.00 0.08 0.05 81 1001.9
20200226140109 5 319 8.0 20.9 0.00 0.08 0.05 82 1001.8
20200226135547 5 300 1.6 20.9 0.00 0.08 0.05 83 1001.8
20200226135105 5 319 0.0 20.9 0.00 0.08 0.05 83 1001.7
20200226134700 5 281 3.2 16.1 0.00 0.08 0.05 83 1001.6
20200226134050 5 284 3.2 17.7 0.00 0.08 0.05 84 1001.6
20200226133551 5 281 4.8 19.3 0.00 0.08 0.05 84 1001.5
20200226133329 5 288 4.8 19.3 0.00 0.08 0.05 84 1001.4
20200226132548 5 284 4.8 17.7 0.00 0.08 0.05 85 1001.4
20200226132044 4 288 6.4 25.7 0.00 0.08 0.05 85 1001.2
20200226131631 4 279 11.3 25.7 0.00 0.08 0.05 85 1001.1
20200226131042 4 276 1.6 25.7 0.00 0.08 0.05 85 1001.1
20200226130542 4 286 6.4 24.1 0.00 0.08 0.05 86 1001.1
20200226130130 4 282 3.2 19.3 0.00 0.08 0.05 87 1000.8
20200226125547 4 275 6.4 17.7 0.00 0.08 0.05 87 1000.8
20200226125044 4 285 3.2 17.7 0.00 0.08 0.05 87 1000.7
20200226124615 4 288 4.8 19.3 0.00 0.08 0.05 88 1000.5
20200226124042 4 271 3.2 19.3 0.00 0.08 0.05 88 1000.5
20200226123539 4 282 8.0 22.5 0.00 0.08 0.05 88 1000.4
20200226123122 4 290 3.2 22.5 0.00 0.08 0.05 88 1000.4
20200226122536 4 288 6.4 22.5 0.00 0.08 0.05 89 1000.2
20200226122036 4 287 8.0 22.5 0.00 0.08 0.05 88 1000.2
20200226121616 3 284 4.8 20.9 0.00 0.08 0.05 88 1000.0
20200226121036 3 302 4.8 20.9 0.00 0.08 0.05 88 1000.0
20200226120534 3 282 9.7 22.5 0.00 0.08 0.05 88 1000.0
20200226120107 3 279 4.8 22.5 0.00 0.08 0.05 88 999.9
20200226115553 3 291 9.7 19.3 0.00 0.08 0.05 87 999.7
20200226115038 4 271 6.4 19.3 0.00 0.08 0.05 86 999.7
20200226114546 4 286 3.2 19.3 0.00 0.08 0.05 86 999.6
20200226114040 4 271 4.8 17.7 0.00 0.08 0.05 86 999.5
20200226113532 4 286 8.0 20.9 0.00 0.08 0.05 86 999.5
20200226113052 4 267 9.7 22.5 0.00 0.08 0.05 85 999.4
20200226112532 4 282 9.7 24.1 0.00 0.08 0.05 86 999.3
20200226112040 4 257 14.5 25.7 0.00 0.08 0.05 85 999.3
20200226111606 4 264 16.1 25.7 0.00 0.08 0.05 86 999.1
20200226111028 4 263 11.3 25.7 0.00 0.08 0.05 86 999.1
20200226110528 3 270 14.5 29.0 0.00 0.08 0.05 86 999.0
20200226110043 3 258 16.1 29.0 0.00 0.08 0.05 85 999.0
20200226105533 3 234 9.7 25.7 0.00 0.08 0.05 85 998.9
20200226105026 3 266 6.4 25.7 0.00 0.08 0.05 86 998.8